Weather in Muzhitino

Russia / Kaluga Oblast     53°45′32″N   34°40′23″E
temp.,
°C
wind,
m/s
gust,
m/s
humid.,
%
clouds,
%
prec.,
mm/h
press.,
hPa
HPBL,
m
26 september, sun
sun2600:00+10w41099100 1.6 1005562
03:00+10nw61086100 3.9 1006891
06:00+9wnw6129188 0.1 1008730
09:00+9wnw6128467 0.1 1010767
12:00+11nw7117899 0.4 10111361
15:00+11nw7127964 1.2 10131186
18:00+8nw6128474 0.1 1014999
21:00+8nnw5118780 0.3 1016840
27 september, mon
mon2700:00+7nnw5129397 0.0 1017520
03:00+8n6118499 0.0 1019740
06:00+8n4108998 0.0 1020685
09:00+9n498691 0.0 1021698
12:00+12nne577067 0.2 10221157
15:00+12nne5770100 0.7 1023963
18:00+10nne487955 0.0 1023500
21:00+7n3794100 0.1 1024187
28 september, tue
tue2800:00+8nne3891100 0.1 1024406
03:00+8nne4993100 0.1 1025436
06:00+8nne4991100 0.1 1025543
09:00+7ne4887100 0.4 1027948
12:00+7ene4877100 0.0 1029775
15:00+8ene4675100 0.1 1030936
18:00+7ne3774100 0.0 1031472
21:00+7ene4881100 0.1 1032565
29 september, wed
wed2900:00+6ene2676100 0.0 1034334
03:00+3ne23835 0.0 103446
06:00+2ne23895 0.0 103655
09:00+5ne35755 0.0 1036290
12:00+10ne34555 0.0 10351005
15:00+11ne23475 0.0 10341200
18:00+8ne226565 0.0 103417
21:00+5ne2274100 0.0 103512
30 september, thu
thu3000:00+4ene117792 0.0 103610
03:00+3ene11809 0.0 103610
06:00+2ne118273 0.0 103710
09:00+6ene126772 0.0 1037176
12:00+10ese1254100 0.0 1036690
15:00+12se115038 0.0 10361019
18:00+8wsw00665 0.0 103610
21:00+6ne01745 0.0 103610